Simultaneous Nadir Overpasses (SNOs) Predictions

Prediction of SNOs between METOP-B and NOAA-19 Satellite Orbit:

Table of predicted SNOs for the next 14.0 days since TLE Epoch: 11/13/2020
Index Date (METOP-B) Time (METOP-B) Lat,Lon (METOP-B) SZA (METOP-B ) Date (NOAA-19) Time (NOAA-19) Lat,Lon (NOAA-19) SZA (NOAA-19 ) Distance(km) Time Diff (sec)
1 11/23/2020 12:53:34 -80.29,-167.91 78.12 11/23/2020 12:52:25 -80.27,-167.96 78.16 1.88 69
2 11/23/2020 13:44:15 80.27, -0.76 101.87 11/23/2020 13:43:20 80.27, -0.72 101.85 0.77 55
3 11/23/2020 14:34:56 -80.28, 166.62 78.13 11/23/2020 14:34:25 -80.26, 166.70 78.14 2.15 31
4 11/23/2020 15:25:37 80.26, -26.22 101.86 11/23/2020 15:25:20 80.26, -26.06 101.87 3.11 17
5 11/23/2020 16:16:18 -80.26, 141.16 78.13 11/23/2020 16:16:26 -80.27, 141.03 78.13 2.51 8
6 11/23/2020 17:06:58 80.28, -51.37 101.90 11/23/2020 17:07:20 80.25, -51.40 101.89 2.64 22
7 11/23/2020 17:57:40 -80.25, 115.69 78.14 11/23/2020 17:58:26 -80.26, 115.69 78.11 0.87 46
